Latest Coastal Weather Observations for Gold Coast Seaway

IDQ60701

Issued at 2:51 am EST Friday 20 January 2017 (issued every 10 minutes, with the page automatically refreshed every 10 minutes)

About coastal observations | Map of coastal stations | Coastal observations for QLD | Marine services | Other Formats
Station Details ID: 040764 Name: GOLD COAST SEAWAY Lat: -27.94 Lon: 153.43 Height: 2.98 m
Data from the previous 72 hours. | See also: Recent months at Gold Coast Seaway
Date/Time
EST
Temp
°C
Wind Pressure Rain since
9am
mm
Weather Cloud Vis
km
Sea
Height
m
Swell
Dir  Spd
kts
Gust
kts
hPa Trend Height
m
Period
s
Dir
20/02:30am 23.1 S 9 12 1008.6 - 0.0 - - - - - - -
20/02:00am 23.3 S 9 11 1009.0 - 0.0 - - - - - - -
20/01:30am 23.5 S 9 12 1009.3 - 0.0 - - - - - - -
20/01:00am 23.7 SSE 11 13 1009.4 - 0.0 - - - - - - -
20/12:30am 23.8 SSE 13 15 1009.7 - 0.0 - - - - - - -
20/12:00am 23.8 S 8 10 1010.3 - 0.0 - - - - - - -
 
Date/Time
EST
Temp
°C
Wind Pressure Rain since
9am
mm
Weather Cloud Vis
km
Sea
Height
m
Swell
Dir  Spd
kts
Gust
kts
hPa Trend Height
m
Period
s
Dir
19/11:30pm 24.0 S 6 8 1010.6 - 0.0 - - - - - - -
19/11:00pm 24.0 S 6 9 1011.0 - 0.0 - - - - - - -
19/10:30pm 23.9 SSW 6 9 1011.3 - 0.0 - - - - - - -
19/10:00pm 23.8 S 6 9 1011.3 - 0.0 - - - - - - -
19/09:30pm 23.7 SSE 10 14 1011.6 - 0.0 - - - - - - -
19/09:00pm 24.2 SSE 12 15 1011.7 - 0.0 - - - - - - -
19/08:30pm 24.3 S 8 10 1011.5 - 0.0 - - - - - - -
19/08:00pm 24.4 SSE 9 11 1011.1 - 0.0 - - - - - - -
19/07:30pm 24.3 SSE 11 14 1010.9 - 0.0 - - - - - - -
19/07:00pm 24.2 SSE 14 16 1010.6 - 0.0 - - - - - - -
19/06:30pm 24.5 SSE 14 16 1010.3 - 0.0 - - - - - - -
19/06:00pm 25.0 SSE 15 18 1010.1 - 0.0 - - - - - - -
19/05:30pm 25.1 SSE 16 20 1009.8 - 0.0 - - - - - - -
19/05:00pm 25.3 SSE 19 23 1009.5 - 0.0 - - - - - - -
19/04:30pm 25.6 SSE 19 22 1009.3 - 0.0 - - - - - - -
19/04:00pm 26.0 SSE 20 24 1009.4 - 0.0 - - - - - - -
19/03:30pm 27.4 SSE 20 25 1009.6 - 0.0 - - - - - - -
19/03:00pm 26.9 SSE 20 25 1009.8 - 0.0 - - - - - - -
19/02:30pm 27.7 SE 20 26 1010.1 - 0.0 - - - - - - -
19/02:00pm 27.6 SE 22 27 1010.4 - 0.0 - - - - - - -
19/01:30pm 28.6 SE 22 27 1010.4 - 0.0 - - - - - - -
19/01:00pm 27.9 SE 23 28 1010.6 - 0.0 - - - - - - -
19/12:30pm 26.8 SE 22 26 1010.7 - 0.0 - - - - - - -
19/12:00pm 27.4 SE 22 27 1010.8 - 0.0 - - - - - - -
19/11:30am 27.2 SE 21 25 1010.9 - 0.0 - - - - - - -
19/11:00am 27.7 SE 20 25 1011.0 - 0.0 - - - - - - -
19/10:30am 27.7 SE 16 19 1011.3 - 0.0 - - - - - - -
19/10:00am 28.1 SSE 17 19 1011.2 - 0.0 - - - - - - -
19/09:30am 27.9 SSE 17 20 1011.2 - 0.0 - - - - - - -
19/09:00am 27.5 SSE 19 24 1011.1 - 0.0 - - - - - - -
19/08:30am 26.9 SSE 19 22 1011.0 - 0.0 - - - - - - -
19/08:00am 26.5 SSE 19 24 1010.9 - 0.0 - - - - - - -
19/07:30am 26.5 SSE 18 20 1010.7 - 0.0 - - - - - - -
19/07:00am 26.0 SSE 19 23 1010.4 - 0.0 - - - - - - -
19/06:30am 25.2 SSE 18 22 1010.1 - 0.0 - - - - - - -
19/06:00am 24.9 SSE 18 20 1009.7 - 0.0 - - - - - - -
19/05:30am 24.9 S 18 24 1009.3 - 0.0 - - - - - - -
19/05:00am 24.7 SSE 17 20 1008.9 - 0.0 - - - - - - -
19/04:30am 24.9 SSE 15 21 1008.4 - 0.0 - - - - - - -
19/04:00am 24.6 SSE 14 16 1007.9 - 0.0 - - - - - - -
19/03:30am 24.7 SSE 17 19 1007.6 - 0.0 - - - - - - -
19/03:00am 24.0 SSE 13 17 1007.5 - 0.0 - - - - - - -
19/02:30am 23.8 ESE 11 13 1007.6 - 0.0 - - - - - - -
19/02:00am 24.4 ESE 14 16 1007.9 - 0.0 - - - - - - -
19/01:30am 25.4 SSE 15 18 1008.0 - 0.0 - - - - - - -
19/01:18am 25.9 WNW 10 29 1008.1 - 0.0 - - - - - - -
19/01:17am 25.9 NW 8 27 1008.0 - 0.0 - - - - - - -
19/01:00am 26.1 NNW 6 8 1006.9 - 0.0 - - - - - - -
19/12:30am 26.3 NNW 8 9 1007.2 - 0.0 - - - - - - -
19/12:00am 26.3 NNW 7 10 1007.6 - 0.0 - - - - - - -
 
Date/Time
EST
Temp
°C
Wind Pressure Rain since
9am
mm
Weather Cloud Vis
km
Sea
Height
m
Swell
Dir  Spd
kts
Gust
kts
hPa Trend Height
m
Period
s
Dir
18/11:30pm 26.0 NW 7 8 1008.0 - 0.0 - - - - - - -
18/11:00pm 26.5 NW 7 10 1008.4 - 0.0 - - - - - - -
18/10:30pm 26.8 NNW 7 9 1008.4 - 0.0 - - - - - - -
18/10:00pm 27.0 NW 8 11 1008.7 - 0.0 - - - - - - -
18/09:30pm 27.2 NW 8 10 1008.7 - 0.0 - - - - - - -
18/09:00pm 27.4 NNW 7 10 1008.6 - 0.0 - - - - - - -
18/08:30pm 27.5 NW 10 14 1008.5 - 0.0 - - - - - - -
18/08:00pm 27.7 NNW 13 17 1008.2 - 0.0 - - - - - - -
18/07:30pm 27.8 NNW 13 18 1007.9 - 0.0 - - - - - - -
18/07:00pm 28.1 NNW 12 20 1007.5 - 0.0 - - - - - - -
18/06:30pm 29.0 NNW 10 15 1007.4 - 0.0 - - - - - - -
18/06:00pm 29.6 NNW 11 15 1007.2 - 0.0 - - - - - - -
18/05:30pm 26.6 N 12 15 1007.1 - 0.0 - - - - - - -
18/05:00pm 26.5 N 14 17 1006.9 - 0.0 - - - - - - -
18/04:30pm 26.8 N 15 17 1006.9 - 0.0 - - - - - - -
18/04:00pm 27.2 N 15 18 1007.2 - 0.0 - - - - - - -
18/03:30pm 27.6 N 16 18 1007.5 - 0.0 - - - - - - -
18/03:00pm 27.8 N 17 20 1007.9 - 0.0 - - - - - - -
18/02:30pm 28.4 NNE 18 20 1008.4 - 0.0 - - - - - - -
18/02:00pm 28.7 NNE 18 21 1008.8 - 0.0 - - - - - - -
18/01:30pm 29.4 NNE 19 21 1009.1 - 0.0 - - - - - - -
18/01:00pm 30.0 NNE 18 20 1009.5 - 0.0 - - - - - - -
18/12:30pm 29.5 N 12 16 1010.0 - 0.0 - - - - - - -
18/12:00pm 29.8 NNE 15 17 1010.5 - 0.0 - - - - - - -
18/11:30am 32.6 NW 10 16 1011.0 - 0.0 - - - - - - -
18/11:00am 31.8 NNW 12 19 1011.2 - 0.0 - - - - - - -
18/10:30am 30.8 NNW 11 17 1011.9 - 0.0 - - - - - - -
18/10:00am 30.1 NW 12 19 1012.2 - 0.0 - - - - - - -
18/09:30am 28.8 NW 14 17 1012.6 - 0.0 - - - - - - -
18/09:00am 28.7 NW 14 18 1012.9 - 0.0 - - - - - - -
18/08:30am 27.8 NW 14 17 1013.1 - 0.0 - - - - - - -
18/08:00am 27.2 NW 12 16 1013.3 - 0.0 - - - - - - -
18/07:30am 26.1 NNW 10 14 1013.4 - 0.0 - - - - - - -
18/07:00am 25.3 NNW 9 11 1013.6 - 0.0 - - - - - - -
18/06:30am 24.5 NW 10 13 1013.5 - 0.0 - - - - - - -
18/06:00am 24.0 NW 11 14 1013.5 - 0.0 - - - - - - -
18/05:30am 23.7 NW 9 13 1013.2 - 0.0 - - - - - - -
18/05:00am 23.7 NW 11 14 1012.9 - 0.0 - - - - - - -
18/04:30am 23.8 NW 10 12 1012.7 - 0.0 - - - - - - -
18/04:00am 23.9 NW 12 15 1012.4 - 0.0 - - - - - - -
18/03:30am 23.7 NW 9 13 1012.4 - 0.0 - - - - - - -
18/03:00am 23.2 NNW 6 8 1012.6 - 0.0 - - - - - - -
18/02:30am 23.4 NNW 5 6 1012.9 - 0.0 - - - - - - -
18/02:00am 23.6 NNW 5 6 1013.1 - 0.0 - - - - - - -
18/01:30am 23.0 NNW 4 5 1013.3 - 0.0 - - - - - - -
18/01:00am 23.5 NNW 5 6 1013.6 - 0.0 - - - - - - -
18/12:30am 23.7 NNW 5 7 1013.9 - 0.0 - - - - - - -
18/12:00am 23.8 NNW 5 6 1014.4 - 0.0 - - - - - - -
 
Date/Time
EST
Temp
°C
Wind Pressure Rain since
9am
mm
Weather Cloud Vis
km
Sea
Height
m
Swell
Dir  Spd
kts
Gust
kts
hPa Trend Height
m
Period
s
Dir
17/11:30pm 23.9 NNW 5 7 1014.8 - 0.0 - - - - - - -
17/11:00pm 24.2 N 6 7 1015.1 - 0.0 - - - - - - -
17/10:30pm 24.5 N 6 8 1015.3 - 0.0 - - - - - - -
17/10:00pm 24.8 N 8 10 1015.5 - 0.0 - - - - - - -
17/09:30pm 25.0 N 8 12 1015.6 - 0.0 - - - - - - -
17/09:00pm 25.2 NNW 7 8 1015.5 - 0.0 - - - - - - -
17/08:30pm 25.3 NNW 9 12 1015.5 - 0.0 - - - - - - -
17/08:00pm 25.3 NNW 8 10 1015.2 - 0.0 - - - - - - -
17/07:30pm 25.2 N 10 14 1015.0 - 0.0 - - - - - - -
17/07:00pm 25.4 NNE 13 14 1014.7 - 0.0 - - - - - - -
17/06:30pm 25.9 NNE 11 14 1014.5 - 0.0 - - - - - - -
17/06:00pm 26.6 NNE 11 14 1014.5 - 0.0 - - - - - - -
17/05:30pm 27.4 NNE 10 14 1014.4 - 0.0 - - - - - - -
17/05:00pm 27.9 NNE 11 13 1014.2 - 0.0 - - - - - - -
17/04:30pm 28.1 NNE 12 14 1014.1 - 0.0 - - - - - - -
17/04:00pm 28.4 NNE 11 13 1014.1 - 0.0 - - - - - - -
17/03:30pm 29.0 NNE 11 13 1014.3 - 0.0 - - - - - - -
17/03:00pm 28.7 NNE 10 12 1014.4 - 0.0 - - - - - - -
17/02:30pm 28.7 NE 10 11 1014.5 - 0.0 - - - - - - -
17/02:00pm 29.1 ENE 8 9 1014.7 - 0.0 - - - - - - -
17/01:30pm 28.8 ENE 9 9 1015.1 - 0.0 - - - - - - -
17/01:00pm 28.8 ENE 8 9 1015.4 - 0.0 - - - - - - -
17/12:30pm 28.6 ENE 8 9 1015.8 - 0.0 - - - - - - -
17/12:00pm 27.2 E 7 8 1016.2 - 0.0 - - - - - - -
17/11:30am 27.7 E 7 8 1016.6 - 0.0 - - - - - - -
17/11:00am 27.8 E 7 8 1016.9 - 0.0 - - - - - - -
17/10:30am 27.2 E 7 7 1017.0 - 0.0 - - - - - - -
17/10:00am 26.7 E 7 9 1017.1 - 0.0 - - - - - - -
17/09:30am 25.6 E 10 11 1017.2 - 0.0 - - - - - - -
17/09:00am 24.4 ENE 10 12 1017.3 - 0.0 - - - - - - -
17/08:30am 24.8 E 10 10 1017.3 - 0.0 - - - - - - -
17/08:00am 25.1 ESE 8 9 1017.3 - 0.0 - - - - - - -
17/07:30am 24.5 ESE 9 11 1017.2 - 0.0 - - - - - - -
17/07:00am 24.9 ESE 4 5 1016.9 - 0.0 - - - - - - -
17/06:30am 24.2 ESE 5 6 1016.6 - 0.0 - - - - - - -
17/06:00am 23.6 ESE 5 6 1016.4 - 0.0 - - - - - - -
17/05:30am 23.1 ESE 5 7 1016.1 - 0.0 - - - - - - -
17/05:00am 23.0 ESE 5 6 1015.8 - 0.0 - - - - - - -
17/04:30am 23.1 ESE 5 6 1015.6 - 0.0 - - - - - - -
17/04:00am 23.2 E 6 7 1015.4 - 0.0 - - - - - - -
17/03:30am 23.3 E 5 6 1015.2 - 0.0 - - - - - - -
17/03:00am 23.2 E 4 5 1015.2 - 0.0 - - - - - - -

Other Formats:

Comma delimited format used in spreadsheet applications
http://www.bom.gov.au/fwo/IDQ60701/IDQ60701.94580.axf

JavaScript Object Notation format (JSON) in row-major order
http://www.bom.gov.au/fwo/IDQ60701/IDQ60701.94580.json